USA 40 R/B DEB

Satellite information

Favourite Embed

Satellite Type and Status

DEBRISIN ORBIT

Key statistics

Satellite USA 40 R/B DEB at a glance.

Uptime

13277

Days in orbit

Revolutions

≈ 10.5

Per day

Orbit

HEO

HEO

Inclination

57.0

Latest

Satellite identification and parameters

Extended collection of information and parameters for USA 40 R/B DEB.

Object identification

Identified? True

Debris? True

Object name: USA 40 R/B DEB

International designator: 1989-061X

Object number (NORAD): 23351

Object ID (CCSDS): 23351

Country: UNITED STATES OF AMERICA (US)

Current information (Y/N): Y

RCS size: SMALL

Orbital parameters

Period: 137.778 minutes

Inclination: 56.9529 deg

SMA: 8836.493 km

Apoapsis: 4409.302 km

Periapsis: 507.414 km

RAAN: 335.2771 deg

Eccentricy: 0.22078264

Argument of periapsis: 75.7702 deg

Mean anomaly: 307.6878 deg

Mean motion: 10.45160209 rev/day

Mean motion (dot): 0.00018383 rev/day2

B* drag term: 0.009490745 1/REarth

Two-line elements (TLE)

Creation date: Dec. 12, 2025, 10:14 a.m.

Reference frame: TEME

Reference center: EARTH

Epoch: Dec. 12, 2025, 7:11 a.m. UTC

TLE line 0: 0 USA 40 R/B DEB

TLE line 1: 1 23351U 89061X 25346.29998053 .00018383 00000-0 94907-2 0 9997

TLE line 2: 2 23351 56.9529 335.2771 2207826 75.7702 307.6878 10.45160209247892

Live tracking on map

Real-time ground track for satellite USA 40 R/B DEB.

In-orbit conjunctions

A list of the most updated potential collisions computed for object USA 40 R/B DEB.

Target Orbit TCA Probability of collision Miss distance Type
FENGYUN 1C DEB SSO 2024-09-27 00:56:34 0.0001041734 936.0 (m) DEBRIS

Associated space launch

STS-28 was the thirtieth space shuttle mission, the fourth dedicated to the Department of Defence and the eigth of the Space Shuttle Columbia.

USA 40 R/B DEB was lifted into orbit during the mission ‘Space Shuttle Columbia / OV-102 | STS-28’, on board a Space Shuttle space rocket.

The launch took place on Aug. 8, 1989, 12:37 p.m. from Launch Complex 39B.

For more information about the launch, click the button.

Launch to space Space Shuttle Columbia / OV-102 | STS-28
Space Shuttle Columbia / OV-102 | STS-28

Agency: N/A

Status: Launch Successful

Launch date: Aug. 8, 1989, 12:37 p.m. UTC

Rocket: Space Shuttle

Launch pad: Launch Complex 39B

Location: Kennedy Space Center, FL, USA

...

Latest news about this satellite

There are no fresh news available about this satellite. Check back as we update our databases every day.


Newsletter sign-up

Weekly statistics, charts and insights to help you stay on top of the space industry.